Find Kosmos-1541

NORAD ID: 14790 Int'l Des: 1984-024 Owner: PVO Country: SU operational
MEOELLIPTICALHEO_ELLIPTICALSEMI_SYNC

Current View

Loading 3D Globe...

About Kosmos-1541

Description loading...

Upcoming Passes

Passes for default location (London). Set your location on the main map for personalized predictions.

Altitude History

Loading altitude history...

Two-Line Element Set

1 14790U 84024A 26150.08563213 .00000193 00000-0 00000+0 0 9993
2 14790 71.7118 149.1110 5125705 341.0777 230.9780 2.00590184281570
Epoch: May 30, 2026 • Age: 13 hours

Current Status

Altitude 26912.0 km
Velocity 2.99 km/s
Sub-Earth Point -16.73°S, 141.03°W
Launch Date Mar 6, 1984
Age 42.2 years
Type other

Technical Details

Classification Payload
Mass 1250.00 kg
Dry Mass 1150.00 kg
Total Mass 1250.00 kg
Length 4.00 m
Diameter 2.00 m
Span 5.00 m
Shape Cyl + 2 Pan
Manufacturer NPOL/KOMET
Bus Type Oko
Phase Status In Orbit
Owner/State PVO/SU

Most Searched